Location: Quebec
(46.8000°N, 71.2500°W)
Time: 18:49:52
(UTC-05:00)

Tiangong 2 - Pass Details

Date: 12 October 2017
Orbit: 386 x 390 km, 42.8° (Epoch: 15 December)

Event Time Altitude Azimuth Distance (km) Brightness Sun altitude
Exits shadow 05:14:31 28° 180° (S) 761 2.4 -18.6°
Maximum altitude 05:14:54 29° 166° (SSE) 744 2.5 -18.6°
Drops below altitude 10° 05:17:45 10° 103° (ESE) 1,426 5.0 -18.1°
Sets 05:19:59 0° 92° (E) 2,284 6.6 -17.7°
